Flag for Belgium Weather past 2 weeks in Mechelen, Belgium

Now
90 °F

Passing clouds.


Feels Like: 90 °F
Forecast: 64 / 78 °F
Wind: 12 mph from West

Location: Brussels National Airport

Current Time: Jul 4, 2015 at 2:07:42 PM

Latest Report: Jul 4, 2015 at 1:20 PM


Visibility: N/A

Pressure: 30.09 "Hg

Humidity: 41%

Dew point: 63 °F

Location of MechelenLocation

Historic Weather in Mechelen — Graph

°F

Mechelen temperature yesterday

Maximum temperature yesterday: 88 °F (at 4:50 PM)
Minimum temperature yesterday: 63 °F (at 5:50 AM)
Average temperature yesterday: 76 °F

Past Weeks' High & Low Weather Summary

 TemperatureHumidityPressure
High93 °F (Jul 1, 4:50 PM)100% (Jun 20, 4:20 AM)30.27 "Hg (Jun 20, 4:20 AM)
Low50 °F (Jun 20, 4:20 AM)30% (Jun 30, 5:50 PM)29.74 "Hg (Jun 22, 5:20 PM)
Average66 °F67%30.09 "Hg
* Reported Jun 19 12:20 PM — Jul 4 12:50 PM, Mechelen, Weather by CustomWeather, © 2015

Note: Actual official high and low records may vary slightly from our data, if they occured in-between our weather recording intervals... More about our weather records

Advertising

Mechelen weather history for previous 24 hours

 ConditionsComfort  
Time TempWeatherWind HumidityBarometerVisibility
12:50 PM
Sat, Jul 4
91 °FPassing clouds.12 mph41%30.09 "HgN/A
12:20 PM90 °FPassing clouds.9 mph46%30.09 "HgN/A
11:50 AM90 °FPassing clouds.8 mph46%30.09 "HgN/A
11:20 AM90 °FPassing clouds.10 mph46%30.07 "HgN/A
10:50 AM88 °FPassing clouds.10 mph49%30.07 "HgN/A
10:20 AM86 °FPassing clouds.14 mph52%30.07 "HgN/A
9:50 AM86 °FPassing clouds.9 mph52%30.07 "HgN/A
9:20 AM84 °FPassing clouds.13 mph55%30.07 "HgN/A
8:50 AM84 °FSunny.9 mph55%30.04 "Hg10 mi
8:20 AM81 °FSunny.9 mph62%30.04 "Hg10 mi
7:50 AM77 °FSunny.8 mph69%30.04 "Hg10 mi
7:20 AM77 °FSunny.8 mph69%30.04 "Hg10 mi
6:50 AM75 °FPassing clouds.6 mph74%30.01 "HgN/A
6:20 AM75 °FClear.6 mph74%30.01 "Hg10 mi
5:50 AM75 °FClear.7 mph78%30.01 "Hg10 mi
5:20 AM75 °FPassing clouds.7 mph78%30.01 "HgN/A
4:50 AM75 °FClear.7 mph78%30.01 "Hg10 mi
4:20 AM77 °FClear.8 mph74%30.04 "Hg10 mi
3:50 AM77 °FClear.9 mph74%30.04 "Hg10 mi
3:20 AM77 °FPassing clouds.10 mph74%30.04 "HgN/A
2:50 AM77 °FClear.7 mph74%30.07 "Hg10 mi
2:20 AM75 °FClear.6 mph74%30.07 "Hg10 mi
1:50 AM77 °FClear.7 mph74%30.07 "Hg10 mi
1:20 AM77 °FClear.7 mph74%30.09 "Hg10 mi
12:50 AM77 °FClear.7 mph74%30.09 "Hg10 mi
12:20 AM77 °FClear.7 mph69%30.09 "Hg10 mi
11:50 PM
Fri, Jul 3
77 °FClear.6 mph69%30.12 "Hg10 mi
11:20 PM77 °FClear.5 mph69%30.12 "Hg10 mi
10:50 PM79 °FPassing clouds.5 mph65%30.12 "HgN/A
10:20 PM79 °FSunny.6 mph65%30.12 "Hg10 mi
9:50 PM79 °FSunny.5 mph65%30.12 "Hg10 mi
9:20 PM81 °FSunny.5 mph62%30.12 "Hg10 mi
8:50 PM82 °FSunny.6 mph58%30.12 "Hg10 mi
8:20 PM84 °FSunny.6 mph55%30.12 "Hg10 mi
7:50 PM84 °FSunny.5 mph58%30.15 "Hg10 mi
7:20 PM86 °FSunny.6 mph52%30.15 "Hg10 mi
6:50 PM86 °FPassing clouds.6 mph49%30.15 "HgN/A
6:20 PM88 °FPassing clouds.7 mph49%30.15 "HgN/A
5:50 PM88 °FPassing clouds.5 mph46%30.18 "HgN/A
5:20 PM88 °FPassing clouds.6 mph46%30.18 "HgN/A
4:50 PM88 °FPassing clouds.6 mph46%30.18 "HgN/A
4:20 PM86 °FPassing clouds.6 mph46%30.21 "HgN/A
3:50 PM86 °FPassing clouds.6 mph46%30.21 "HgN/A
3:20 PM86 °FPassing clouds.5 mph49%30.21 "HgN/A
2:50 PM86 °FSunny.5 mph46%30.21 "Hg10 mi
2:20 PM84 °FPassing clouds.5 mph48%30.24 "HgN/A
Weather by CustomWeather, © 2015

See weather overviewHow to use our weather pages